Weather History for Lincoln, NE

Change the Weather History Date:

Wednesday, January 10, 2001

  Actual Average Record
Temperature  
Mean Temperature 40 °F 24 °F  
Max Temperature 48 °F 35 °F 73 °F (1990)
Min Temperature 32 °F 14 °F -18 °F (1982)
Degree Days  
Heating Degree Days 25 41  
Month to date heating degree days 407  
Since 1 July heating degree days 2852  
Cooling Degree Days 0 0  
Month to date cooling degree days 0  
Year to date cooling degree days 0  
Moisture  
Dew Point 30 °F    
Average Humidity 73    
Maximum Humidity 86    
Minimum Humidity 56    
Precipitation  
Precipitation 0.00 in 0.02 in 0.76 in (1975)
Month to date precipitation 0.20  
Year to date precipitation 0.20  
Snow  
Snow 0.00 in 0.20 in - ()
Month to date snowfall 1.6  
Since 1 July snowfall 10.3  
Snow Depth -    
Sea Level Pressure  
Sea Level Pressure 29.99 in    
Wind  
Wind Speed 14 mph (SSW)    
Max Wind Speed 17 mph    
Max Gust Speed 29 mph    
Visibility 10 miles    
Events      
T = Trace of Precipitation, MM = Missing Value Source: NWS Daily Summary

Daily Weather History Graph

Daily Weather History Graph

Search for Another Location

Airport:

Trip Planner

Search our weather history database for the weather conditions in past years. The results will help you decide how hot, cold, wet, or windy it might be!

Date:

Astronomy

Jan. 10, 2001 Rise Set
Actual Time 7:50 AM CST 5:18 PM CST
Civil Twilight 7:20 AM CST 5:49 PM CST
Nautical Twilight 6:46 AM CST 6:23 PM CST
Astronomical Twilight 6:13 AM CST 6:56 PM CST
Moon 6:32 PM CST (1/10) 8:39 AM CST (1/10)
Length of Visible Light 10h 28m
Length of Day
9h 27m
Full, 99% of the Moon is Illuminated
Jan 10
Full
Jan 16
Last Quarter
Jan 24
New
Feb 1
First Quarter
Feb 8
Full

Hourly Weather History & Observations

Time (CST) Temp. Windchill Dew Point Humidity Pressure Visibility Wind Dir Wind Speed Gust Speed Precip Events Conditions
12:54 AM 33.1 °F 22.6 °F 25.0 °F 72% 30.10 in 10.0 mi SSW 16.1 mph - N/A   Clear
1:54 AM 32.0 °F 22.1 °F 25.0 °F 75% 30.09 in 10.0 mi SSW 13.8 mph - N/A   Clear
2:54 AM 32.0 °F 22.5 °F 25.0 °F 75% 30.07 in 10.0 mi SSW 12.7 mph - N/A   Clear
3:54 AM 32.0 °F 23.0 °F 25.0 °F 75% 30.05 in 10.0 mi SSW 11.5 mph - N/A   Clear
4:54 AM 32.0 °F 22.1 °F 26.1 °F 79% 30.04 in 10.0 mi SSW 13.8 mph - N/A   Clear
5:54 AM 32.0 °F 24.2 °F 27.0 °F 82% 30.04 in 10.0 mi SSW 9.2 mph - N/A   Clear
6:54 AM 32.0 °F 22.1 °F 27.0 °F 82% 30.02 in 10.0 mi SSW 13.8 mph - N/A   Clear
7:54 AM 32.0 °F 21.6 °F 27.0 °F 82% 30.02 in 10.0 mi SSW 15.0 mph - N/A   Clear
8:54 AM 34.0 °F 24.2 °F 28.0 °F 79% 30.02 in 10.0 mi SSW 15.0 mph - N/A   Clear
9:54 AM 37.9 °F 28.9 °F 30.0 °F 73% 30.02 in 10.0 mi SSW 16.1 mph - N/A   Clear
10:54 AM 39.9 °F 31.8 °F 30.0 °F 68% 30.02 in 10.0 mi SSW 15.0 mph - N/A   Clear
11:54 AM 42.1 °F 35.7 °F 30.9 °F 65% 30.00 in 10.0 mi South 11.5 mph - N/A   Clear
12:54 PM 45.0 °F 37.6 °F 30.9 °F 58% 29.96 in 10.0 mi SSW 17.3 mph 28.8 mph N/A   Clear
1:54 PM 46.0 °F 39.3 °F 32.0 °F 58% 29.93 in 10.0 mi SSW 16.1 mph - N/A   Clear
2:54 PM 48.0 °F - 33.1 °F 56% 29.91 in 10.0 mi SSW 15.0 mph - N/A   Clear
3:54 PM 46.0 °F 39.9 °F 33.1 °F 61% 29.91 in 10.0 mi South 13.8 mph - N/A   Clear
4:54 PM 45.0 °F 38.5 °F 33.1 °F 63% 29.91 in 10.0 mi SSW 13.8 mph - N/A   Clear
5:54 PM 42.1 °F 34.5 °F 33.1 °F 70% 29.92 in 10.0 mi SSW 15.0 mph - N/A   Clear
6:54 PM 42.1 °F 34.5 °F 34.0 °F 73% 29.93 in 10.0 mi SSW 15.0 mph - N/A   Clear
7:54 PM 42.1 °F 34.2 °F 36.0 °F 79% 29.95 in 10.0 mi SSW 16.1 mph - N/A   Clear
8:54 PM 42.1 °F 34.5 °F 35.1 °F 76% 29.95 in 10.0 mi SSW 15.0 mph - N/A   Clear
9:54 PM 39.9 °F 32.5 °F 35.1 °F 83% 29.95 in 10.0 mi South 12.7 mph - N/A   Clear
10:54 PM 39.0 °F 31.4 °F 35.1 °F 86% 29.96 in 10.0 mi SSW 12.7 mph - N/A   Clear
11:54 PM 39.9 °F 32.1 °F 35.1 °F 83% 29.96 in 9.0 mi SSW 13.8 mph - N/A   Clear